[[{"header":{"parameterUnit":"m.s-1","parameterCategory":1,"la1":30.2991,"la2":30.254,"lo1":-89.0895,"lo2":-89.0444,"dy":0.0017,"dx":0.0017,"nx":28,"ny":28,"refTime":"2025-06-19T09:00:00:Z","depth":0,"parameterNumber":2,"parameterNumberName":"U-component_of_WINDS"},"data":[0,0,0,0,0,0,0,0,0,0,0,0,0,0,0,0,0,0,0,0,0,0,0,0,0,0,0,0,0,0,0,0,0,0,0,0,0,0,0,0,0,0,0,0,0,0,0,0,0,0,0,0,0,0,0,0,0,0,1.5005,1.5006,0,1.5115,1.5116,1.5117,1.513,1.5129,1.5128,1.5127,1.5241,1.5245,1.5249,0,0,0,0,0,0,0,0,0,0,0,0,0,1.4808,1.4812,1.5005,1.5006,1.5008,1.5114,1.5116,1.5117,1.513,1.5129,1.5128,1.5126,1.524,1.5245,1.525,0,0,0,0,0,0,0,0,0,0,0,0,0,1.4903,1.4813,1.5005,1.5027,1.503,1.5114,1.5116,1.5118,1.5131,1.5129,1.5127,1.5126,1.5239,1.5244,1.525,1.5321,0,0,1.5269,1.5272,0,0,0,0,0,0,0,0,1.4898,1.4911,1.5022,1.5026,1.5029,1.5107,1.5088,1.5186,1.5131,1.5092,1.5127,1.5125,1.5198,1.5207,1.5232,1.5326,1.5331,1.527,1.5273,1.5276,1.5278,0,0,0,0,0,0,0,1.4891,1.4906,1.5048,1.5024,1.5028,1.5032,1.5044,1.5107,1.5153,1.5096,1.5097,1.511,1.52,1.5226,1.5234,1.5333,1.5269,1.5275,1.5279,1.5281,1.5488,1.549,0,0,0,0,0,0,1.488,1.49,1.5045,1.5052,1.4958,1.5037,1.505,1.5084,1.5153,1.5161,1.5111,1.511,1.5216,1.5227,1.5239,1.5323,1.5276,1.5282,1.5285,1.5486,1.5488,1.549,0,0,0,0,0,0,1.4876,1.4893,1.504,1.4976,1.4995,1.5042,1.508,1.5087,1.5113,1.5164,1.5172,1.5129,1.5215,1.523,1.5299,1.5328,1.5284,1.529,1.5484,1.5487,1.5489,1.5495,0,0,0,0,0,0,1.487,1.4892,1.4918,1.4977,1.4999,1.5099,1.5082,1.509,1.5123,1.5122,1.5183,1.5192,1.5215,1.529,1.5305,1.5335,1.5295,1.5482,1.5485,1.5488,1.5492,1.5497,1.5502,0,0,0,0,0,1.4863,1.4916,1.492,1.4937,1.5033,1.5101,1.5113,1.5139,1.5125,1.5152,1.5185,1.519,1.5322,1.5297,1.5315,1.5346,1.548,1.5484,1.5488,1.549,1.5496,1.5501,0,0,0,0,0,0,1.4861,1.4925,1.4929,1.5002,1.5046,1.5103,1.5138,1.5145,1.5194,1.5191,1.5222,1.5235,1.5303,1.5332,1.5303,1.5417,1.54,1.5408,1.5395,1.5402,1.5406,1.5397,1.53,0,0,0,0,0,1.4869,1.4918,1.4971,1.5031,1.5052,1.5091,1.5122,1.5138,1.5184,1.5203,1.5241,1.5287,1.5338,1.5372,1.5423,1.5497,1.5509,1.5527,1.5532,1.5536,1.5541,1.5581,1.5589,1.5504,1.5504,1.5504,0,0,1.4886,1.4927,1.4956,1.5031,1.5067,1.5117,1.5107,1.5161,1.5198,1.5212,1.5278,1.5308,1.5361,1.5432,1.5466,1.5459,1.5568,1.5541,1.5543,1.5547,1.5586,1.5594,1.5601,1.5507,1.5506,1.5506,0,0,1.4942,1.4979,1.5031,1.5067,1.5121,1.5146,1.5159,1.5214,1.5234,1.5302,1.5312,1.5358,1.5447,1.5483,1.5514,1.5582,1.5588,1.5598,1.5623,1.5661,1.5667,1.5673,1.5696,1.5704,1.5604,1.5605,1.5605,0,1.4957,1.5032,1.5058,1.5111,1.5143,1.5157,1.521,1.5244,1.5311,1.5333,1.5324,1.5435,1.5472,1.5551,1.5567,1.5592,1.5607,1.5591,1.5664,1.5671,1.5677,1.5699,1.5707,1.5605,1.5605,1.5605,1.5605,0,1.5046,1.5099,1.5135,1.5198,1.5235,1.5288,1.5322,1.5356,1.5368,1.5395,1.5463,1.5507,1.5566,1.5587,1.56,1.5668,1.5661,1.5658,1.5641,1.5685,1.5706,1.5715,1.5606,1.5606,1.5606,1.5606,0,0,1.5104,1.518,1.5193,1.5221,1.5281,1.5322,1.5375,1.5432,1.5459,1.5506,1.5551,1.5625,1.5622,1.5656,1.5674,1.5708,1.5757,1.5701,1.5702,1.5708,1.5832,1.5833,1.5842,1.5762,1.5764,1.5765,1.5827,0,1.5165,1.526,1.5284,1.5364,1.5412,1.5425,1.5472,1.5513,1.5539,1.5584,1.5613,1.5664,1.5657,1.5678,1.5712,1.5744,1.5782,1.574,1.5803,1.5805,1.5787,1.5854,1.5855,1.5912,1.5836,1.5837,1.5838,0,1.525,1.5296,1.538,1.5432,1.5453,1.5494,1.5547,1.559,1.5638,1.5654,1.5692,1.5706,1.5762,1.5743,1.582,1.579,1.5818,1.5837,1.584,1.5846,1.5823,1.5859,1.5931,1.5938,1.5852,1.5851,1.585,0,1.528,1.5364,1.5425,1.5449,1.5512,1.554,1.5568,1.5614,1.5646,1.5693,1.5713,1.5767,1.5795,1.5836,1.5864,1.5848,1.5938,1.5922,1.5953,1.5952,1.597,1.5968,1.6045,1.5991,1.5991,1.599,1.599,0,1.5345,1.5396,1.5439,1.5477,1.5534,1.5562,1.5617,1.5646,1.5686,1.5729,1.5745,1.5785,1.582,1.5865,1.5888,1.5947,1.596,1.5975,1.598,1.5972,1.597,1.599,1.5986,1.5993,1.5992,1.5992,1.5991,0,1.5388,1.542,1.5487,1.554,1.5555,1.5595,1.5641,1.5677,1.5704,1.5758,1.5772,1.5814,1.5867,1.5899,1.5968,1.5983,1.6047,1.6052,1.6031,1.6033,1.6061,1.6057,1.6151,1.6164,1.6103,1.6103,1.6104,0,1.5427,1.5466,1.5523,1.5553,1.558,1.5628,1.566,1.5689,1.5722,1.5778,1.5808,1.5862,1.5907,1.5992,1.6028,1.608,1.6085,1.6114,1.6093,1.6083,1.6083,1.608,1.6083,1.6117,1.6118,1.6118,1.6119,0,1.5491,1.5504,1.555,1.5601,1.5639,1.568,1.5722,1.5745,1.5781,1.5818,1.5872,1.5906,1.5975,1.6028,1.6083,1.6112,1.6121,1.6125,1.6135,1.6127,1.6112,1.6118,1.6039,1.6123,1.6122,1.6122,1.6122,1.6122,1.5532,1.5567,1.5612,1.5662,1.5696,1.5734,1.5771,1.5801,1.5846,1.5904,1.5919,1.5975,1.6021,1.6095,1.6125,1.617,1.6165,1.6179,1.6183,1.6185,1.6185,1.6106,1.618,1.618,1.618,1.618,1.618,0,1.5595,1.5625,1.5671,1.5727,1.5767,1.5772,1.5818,1.585,1.5899,1.5941,1.5984,1.6045,1.6097,1.6137,1.619,1.6218,1.6223,1.623,1.6228,1.6234,1.6187,1.6172,1.6225,1.6225,1.6225,1.6225,1.6225,1.6225,1.5633,1.5691,1.5709,1.5785,1.5814,1.5869,1.5894,1.5929,1.5962,1.603,1.6072,1.6098,1.6139,1.6195,1.6242,1.6252,1.627,1.6277,1.6288,1.6243,1.6238,1.6233,1.6219,1.6281,1.6281,1.6331,1.6331,1.6332]},{"header":{"parameterUnit":"m.s-1","parameterCategory":1,"la1":30.2991,"la2":30.254,"lo1":-89.0895,"lo2":-89.0444,"dy":0.0017,"dx":0.0017,"nx":28,"ny":28,"refTime":"2025-06-19T09:00:00:Z","depth":0,"parameterNumber":3,"parameterNumberName":"V-component_of_WINDS"},"data":[0,0,0,0,0,0,0,0,0,0,0,0,0,0,0,0,0,0,0,0,0,0,0,0,0,0,0,0,0,0,0,0,0,0,0,0,0,0,0,0,0,0,0,0,0,0,0,0,0,0,0,0,0,0,0,0,0,0,4.3953,4.3952,0,4.3888,4.3888,4.3887,4.3801,4.38,4.3798,4.3797,4.373,4.373,4.3729,0,0,0,0,0,0,0,0,0,0,0,0,0,4.4001,4.4,4.3953,4.3952,4.3951,4.3888,4.3888,4.3887,4.3801,4.3799,4.3798,4.3796,4.373,4.373,4.3729,0,0,0,0,0,0,0,0,0,0,0,0,0,4.3963,4.4,4.3953,4.3901,4.3896,4.3889,4.3888,4.3886,4.3802,4.3799,4.3797,4.3795,4.373,4.373,4.3729,4.3767,0,0,4.3727,4.3727,0,0,0,0,0,0,0,0,4.3965,4.3961,4.3909,4.3905,4.3899,4.385,4.388,4.3846,4.3802,4.3837,4.3797,4.3794,4.3772,4.3768,4.376,4.3764,4.3761,4.3727,4.3726,4.3726,4.3726,0,0,0,0,0,0,0,4.3968,4.3963,4.3927,4.3909,4.3902,4.388,4.3873,4.3873,4.3817,4.3834,4.3828,4.3821,4.3768,4.3761,4.3758,4.376,4.3727,4.3726,4.3726,4.3726,4.379,4.3792,0,0,0,0,0,0,4.3978,4.3966,4.3929,4.3925,4.3927,4.3881,4.3873,4.3868,4.3817,4.3807,4.3823,4.3817,4.3763,4.3759,4.3755,4.3795,4.3726,4.3725,4.3725,4.3788,4.3791,4.3793,0,0,0,0,0,0,4.3979,4.3976,4.3932,4.3944,4.3937,4.3883,4.3878,4.3868,4.386,4.3809,4.3798,4.3826,4.3761,4.3756,4.3764,4.3792,4.3725,4.3725,4.3786,4.3789,4.3792,4.3876,0,0,0,0,0,0,4.3981,4.3977,4.3991,4.3945,4.3936,4.3943,4.388,4.3868,4.386,4.3852,4.3809,4.3799,4.3759,4.3766,4.3764,4.3789,4.3724,4.3783,4.3787,4.3791,4.3871,4.3882,4.3892,0,0,0,0,0,4.3983,4.4018,4.3992,4.3988,4.3953,4.3945,4.394,4.3893,4.3862,4.3876,4.3842,4.3801,4.3789,4.3768,4.3764,4.379,4.3781,4.3786,4.3791,4.3866,4.388,4.3891,0,0,0,0,0,0,4.4068,4.4011,4.3982,4.4002,4.3979,4.393,4.3946,4.3909,4.3894,4.3888,4.383,4.3821,4.3836,4.3814,4.3791,4.3824,4.3779,4.3783,4.3837,4.385,4.386,4.3864,4.3723,0,0,0,0,0,4.409,4.4088,4.4037,4.406,4.405,4.4001,4.3995,4.3961,4.3935,4.3924,4.3892,4.3867,4.3858,4.3853,4.3841,4.3868,4.3856,4.3884,4.3894,4.3903,4.3907,4.3917,4.3928,4.3809,4.3809,4.3809,0,0,4.4133,4.4102,4.4104,4.4077,4.4055,4.4053,4.3993,4.3995,4.3993,4.3924,4.393,4.3905,4.3874,4.3891,4.3897,4.3873,4.3937,4.3909,4.3916,4.3915,4.3923,4.3935,4.3945,4.3812,4.3812,4.3811,0,0,4.4212,4.4189,4.4204,4.4183,4.4151,4.4117,4.4121,4.4078,4.4059,4.4064,4.4012,4.4009,4.3994,4.3973,4.3961,4.4031,4.3992,4.4029,4.4083,4.4094,4.4103,4.4111,4.4134,4.4144,4.4034,4.4034,4.4034,0,4.427,4.4267,4.4217,4.4221,4.421,4.4149,4.4164,4.4146,4.4111,4.4105,4.4079,4.4058,4.4033,4.4043,4.4061,4.4053,4.4055,4.4034,4.4106,4.4113,4.412,4.4142,4.4151,4.4039,4.4038,4.4038,4.4037,0,4.4339,4.4337,4.4354,4.4322,4.4313,4.4323,4.4274,4.4271,4.4238,4.4207,4.4212,4.4179,4.4159,4.416,4.4127,4.4165,4.4151,4.4117,4.407,4.4137,4.4156,4.4164,4.4045,4.4044,4.4042,4.4041,0,0,4.4468,4.4409,4.4416,4.44,4.4359,4.4357,4.4364,4.4344,4.4342,4.432,4.4323,4.4312,4.4279,4.4266,4.423,4.424,4.4296,4.4204,4.4202,4.4221,4.4333,4.4358,4.4369,4.427,4.4271,4.4272,4.4335,0,4.4538,4.4546,4.4501,4.4521,4.4518,4.446,4.4465,4.4441,4.4412,4.4405,4.4373,4.4365,4.4323,4.4314,4.4321,4.4288,4.4317,4.4282,4.427,4.4271,4.4279,4.4379,4.4406,4.4467,4.4342,4.4343,4.4344,0,4.462,4.4603,4.4622,4.458,4.4577,4.4583,4.4561,4.4555,4.4526,4.4504,4.4488,4.4448,4.445,4.4407,4.4408,4.4386,4.4378,4.4361,4.4362,4.4358,4.4311,4.4376,4.4485,4.4494,4.4356,4.4355,4.4354,0,4.471,4.4692,4.4701,4.469,4.4641,4.4646,4.4626,4.4594,4.4585,4.4566,4.4559,4.4541,4.453,4.4516,4.4471,4.4444,4.4477,4.4431,4.4458,4.4459,4.4467,4.4467,4.4575,4.4465,4.4465,4.4464,4.4464,0,4.4792,4.4806,4.4741,4.4746,4.476,4.4708,4.4722,4.4696,4.4669,4.4667,4.4616,4.4615,4.4557,4.4549,4.4514,4.452,4.4516,4.4497,4.4487,4.4501,4.4503,4.4494,4.4488,4.4467,4.4466,4.4466,4.4465,0,4.4894,4.4852,4.4857,4.4811,4.4799,4.4811,4.4771,4.4773,4.4741,4.474,4.4737,4.4686,4.4675,4.4629,4.4607,4.4583,4.4599,4.4581,4.4609,4.4603,4.4632,4.4629,4.4737,4.4747,4.4633,4.4634,4.4635,0,4.4948,4.4957,4.4912,4.4908,4.489,4.4883,4.4874,4.4823,4.4815,4.4782,4.4788,4.4773,4.4757,4.4742,4.4702,4.4684,4.4664,4.4703,4.4661,4.4674,4.4663,4.4662,4.4662,4.4712,4.4714,4.4715,4.4716,0,4.5048,4.5026,4.5015,4.4996,4.4987,4.4969,4.4949,4.4948,4.4891,4.4885,4.4873,4.4861,4.4838,4.4822,4.4798,4.4776,4.4736,4.473,4.4735,4.4748,4.4763,4.4754,4.4632,4.4727,4.4726,4.4725,4.4725,4.4724,4.5126,4.5131,4.51,4.5089,4.5068,4.505,4.505,4.5018,4.5008,4.4985,4.4956,4.4947,4.4916,4.4879,4.486,4.4851,4.4829,4.4837,4.4839,4.4841,4.4847,4.4766,4.4847,4.4846,4.4846,4.4846,4.4845,0,4.5222,4.5199,4.5189,4.5162,4.5153,4.5118,4.5093,4.5088,4.5081,4.5056,4.5042,4.5027,4.5012,4.4972,4.4952,4.4953,4.4934,4.4949,4.4948,4.4943,4.4869,4.4865,4.4965,4.4964,4.4964,4.4964,4.4964,4.4964,4.527,4.5277,4.5252,4.5247,4.5223,4.5215,4.5204,4.5186,4.5166,4.5152,4.5139,4.5113,4.5081,4.5059,4.5043,4.5031,4.5025,4.5046,4.5029,4.496,4.4948,4.4937,4.4934,4.5046,4.5046,4.5103,4.5104,4.5104]}]]